Regional Weather Roundup
Issued by NWS

Home | Current Version | Previous Version | Graphics & Text | Print | Product List | Glossary On
Versions: 1 2 3 4 5 6 7 8 9 10 11 12 13 14 15 16 17 18 19 20 21 22 23 24 25 26 27 28 29 30 31 32 33 34 35 36 37 38 39 40 41 42 43 44 45 46 47 48 49 50
966
ASUS45 KABQ 050801
RWRNM
NEW MEXICO REGIONAL WEATHER ROUNDUP
NATIONAL WEATHER SERVICE ALBUQUERQUE NM
100 AM MST MON DEC 05 2016

NOTE: "FAIR" MEANS FEW OR NO CLOUDS BELOW 12,000 FEET AGL WITH NO
       SIGNIFICANT WEATHER OR OBSTRUCTIONS TO VISION.

      THIS PRODUCT IS RELEASED AS TWO VERSIONS.  ONE VERSION NEAR
      THE TOP OF THE HOUR CONTAINING PRELIMINARY DATA FROM ALBUQUERQUE
      AND OTHER STATIONS.  A FINAL VERSION WITH ADDITIONAL DATA IS
      ISSUED ABOUT 10 MINUTES AFTER THE HOUR.

NMZ501-503-504-510>518-050900-
NORTHWEST PLATEAU/NORTHCENTRAL MOUNTAINS

CITY           SKY/WX    TMP DP  RH WIND       PRES   REMARKS
FARMINGTON     FAIR      23  19  85 NE6       30.01F WCI  16
LOS ALAMOS     FAIR      35  16  46 CALM      30.00F
SANTA FE       FAIR      26  14  60 CALM      29.98F
TAOS           FAIR      16   7  67 N6        29.99F WCI   7
ANGEL FIRE     FAIR      24  12  61 SW5       29.95F WCI  18

$$
NMZ402-403-502-505>509-050900-
WESTCENTRAL MOUNTAINS/SOUTHWEST MOUNTAINS

CITY           SKY/WX    TMP DP  RH WIND       PRES   REMARKS
GALLUP         FAIR      18  15  88 CALM      30.03F
GRANTS         FAIR      19  14  82 NW6       30.06S WCI  11
SILVER CITY    FAIR      30  26  84 N8        30.04F WCI  22

$$
NMZ407-409-411-412-050900-
SOUTHERN DESERTS

CITY           SKY/WX    TMP DP  RH WIND       PRES   REMARKS
DEMING         FAIR      29  26  89 W6        30.04F WCI  23
LAS CRUCES     FAIR      34  23  64 NW6       30.03F WCI  29
HOLLOMAN AFB   FAIR      29  22  75 SE5       30.05F WCI  24
T OR C         FAIR      31  18  58 W6        30.01F WCI  25

$$
NMZ519>523-050900-
CENTRAL VALLEYS/CENTRAL HIGHLANDS

CITY           SKY/WX    TMP DP  RH WIND       PRES   REMARKS
ALBUQUERQUE    FAIR      31  13  47 SE3       30.01F
DOUBLE EAGLE   FAIR      28  12  52 W9        30.01F WCI  19
MORIARTY ARPT  FAIR      19  10  69 CALM      29.99F
CLINES CORNERS FAIR      27   7  42 NW15      29.96F WCI  15
BELEN          FAIR      27  16  63 SW3       30.02F
SOCORRO        FAIR      25  16  69 CALM      30.02F

$$
NMZ524>526-539-540-050900-
SOUTHCENTRAL MOUNTAINS

CITY           SKY/WX    TMP DP  RH WIND       PRES   REMARKS
RUIDOSO        FAIR      32   9  37 W9        30.00F WCI  24

$$
NMZ527>531-050900-
NORTHEAST HIGHLANDS/NORTHEAST PLAINS

CITY           SKY/WX    TMP DP  RH WIND       PRES   REMARKS
LAS VEGAS      FAIR      30  10  43 CALM      29.89F
RATON          FAIR      22  14  71 N5        29.84F WCI  16
CLAYTON        FAIR      31  26  82 SW13      29.82F WCI  21

$$
NMZ532>537-050900-
EASTCENTRAL PLAINS

CITY           SKY/WX    TMP DP  RH WIND       PRES   REMARKS
TUCUMCARI      FAIR      36  28  73 SW12      29.88F WCI  28
CANNON AFB     NOT AVBL
CLOVIS AIRPORT FAIR      27  21  80 SW9       29.95F WCI  17

$$
NMZ028-029-538-050900-
SOUTHEAST PLAINS

CITY           SKY/WX    TMP DP  RH WIND       PRES   REMARKS
ROSWELL        FAIR      28  25  88 CALM      29.98F
ARTESIA        FAIR      28  28 100 SE7       30.01F WCI  21
CARLSBAD       FAIR      28  28 100 SW5       30.01F WCI  23
HOBBS          FAIR      30  30 100 NW6       30.01F WCI  24


$$




USA.gov is the U.S. government's official web portal to all federal, state and local government web resources and services.